KP4DJT Weather Reports


time (UTC)temp
F
wind
direction
speed
knots
gust
knots
rain 1hr
in
rain 24hr
in
rain mn
in
humidity
%
barometer
mb
20260505214218 53 54 6.1 9.6 0.00 0.01 0.00 72 1008.7
20260505213220 53 43 3.5 6.1 0.00 0.02 0.00 72 1008.8
20260505212220 53 16 5.2 7.8 0.00 0.02 0.00 71 1008.8
20260505211218 53 38 4.3 7.8 0.00 0.02 0.00 72 1008.6
20260505210218 54 29 7.0 11.3 0.00 0.02 0.00 72 1008.6
20260505205218 54 39 7.0 9.6 0.00 0.02 0.00 73 1008.4
20260505204218 54 29 5.2 9.6 0.00 0.02 0.00 73 1009.1
20260505203218 54 56 6.1 7.8 0.00 0.02 0.00 73 1009.2
20260505202218 54 30 6.1 7.0 0.00 0.02 0.00 74 1008.6
20260505201218 54 42 5.2 7.8 0.00 0.02 0.00 75 1008.3
20260505200219 54 49 6.1 7.8 0.00 0.02 0.00 76 1008.3
20260505195218 54 22 6.1 8.7 0.00 0.02 0.00 76 1008.3
20260505194239 54 4 6.1 9.6 0.00 0.02 0.00 77 1008.4
20260505193219 54 21 5.2 7.8 0.00 0.02 0.00 78 1008.4
20260505192219 54 31 4.3 7.0 0.00 0.02 0.00 79 1008.3
20260505191219 54 47 5.2 7.8 0.00 0.02 0.00 79 1008.0
20260505190239 54 49 2.6 6.1 0.00 0.02 0.00 80 1008.1
20260505185239 55 352 5.2 9.6 0.00 0.02 0.00 79 1008.2
20260505184219 55 15 3.5 6.1 0.00 0.02 0.00 79 1008.0
20260505183219 55 359 3.5 5.2 0.00 0.02 0.00 78 1007.9
20260505182219 56 20 3.5 5.2 0.00 0.02 0.00 77 1007.7
20260505181219 56 39 2.6 6.1 0.00 0.02 0.00 78 1007.6
20260505180319 56 46 4.3 6.1 0.00 0.02 0.00 78 1007.4
20260505175220 56 57 3.5 5.2 0.00 0.02 0.00 79 1007.4
20260505174216 56 33 6.1 7.8 0.00 0.02 0.00 80 1007.1
20260505173220 56 19 6.1 10.4 0.00 0.02 0.00 80 1007.0
20260505172220 56 51 7.0 9.6 0.00 0.02 0.00 80 1006.8
20260505171220 56 22 7.8 11.3 0.00 0.02 0.00 81 1006.7
20260505170237 56 15 6.1 7.8 0.00 0.02 0.00 81 1006.5
20260505165217 56 41 6.1 9.6 0.00 0.02 0.00 81 1006.2
20260505164220 57 27 5.2 7.8 0.00 0.02 0.00 81 1006.2
20260505163240 57 49 5.2 7.8 0.00 0.02 0.00 82 1005.9
20260505162220 58 24 7.0 10.4 0.00 0.02 0.00 82 1005.6
20260505161237 58 17 5.2 8.7 0.00 0.02 0.00 82 1005.2
20260505160221 59 3 5.2 7.0 0.00 0.02 0.00 82 1004.7
20260505153238 61 25 5.2 8.7 0.00 0.02 0.00 82 1004.1
20260505152218 63 19 4.3 7.0 0.00 0.02 0.00 81 1003.8
20260505151218 66 8 4.3 6.1 0.00 0.02 0.00 81 1003.4
20260505150239 68 27 5.2 7.8 0.00 0.02 0.00 84 1003.0
20260505140242 68 107 2.6 5.2 0.00 0.02 0.00 83 1001.9
20260505130217 70 73 3.5 4.3 0.00 0.02 0.00 78 1001.6
20260505124218 70 62 0.0 0.0 0.00 0.02 0.00 76 1001.5
20260505123232 70 26 0.0 0.9 0.00 0.02 0.00 76 1001.4
20260505122232 70 13 1.7 1.7 0.00 0.02 0.00 76 1001.3
20260505121233 70 60 0.9 1.7 0.00 0.02 0.00 76 1001.0
20260505120232 70 66 0.9 1.7 0.00 0.02 0.00 75 1001.0
20260505115218 71 20 0.9 1.7 0.00 0.02 0.00 74 1001.0
20260505114218 71 46 3.5 4.3 0.00 0.02 0.00 72 1000.6
20260505113218 72 24 1.7 2.6 0.00 0.02 0.00 71 1000.0
20260505112218 72 346 2.6 2.6 0.00 0.02 0.00 71 999.7
20260505111218 72 223 7.8 9.6 0.00 0.02 0.00 70 999.5
20260505110218 72 238 5.2 6.1 0.00 0.02 0.00 70 999.6
20260505102220 73 216 7.8 11.3 0.00 0.02 0.00 71 998.8
20260505101217 73 215 8.7 11.3 0.00 0.02 0.00 70 998.7
20260505100237 73 213 7.8 12.2 0.00 0.02 0.00 71 998.8
20260505095220 73 222 6.1 7.8 0.00 0.02 0.00 71 998.8
20260505094240 73 218 9.6 13.9 0.00 0.02 0.00 71 998.7
20260505093217 73 208 10.4 16.5 0.00 0.02 0.00 70 998.6
20260505092217 73 211 8.7 14.8 0.00 0.02 0.00 70 998.6
20260505091217 73 215 7.0 10.4 0.00 0.02 0.00 70 998.8
20260505090218 73 214 7.8 11.3 0.00 0.02 0.00 71 998.9
20260505085218 73 218 6.1 7.8 0.00 0.02 0.00 71 999.0
20260505084218 73 211 7.8 11.3 0.00 0.02 0.00 70 999.0
20260505083218 73 211 10.4 13.0 0.00 0.02 0.00 70 999.0
20260505082218 73 208 7.0 11.3 0.00 0.02 0.00 70 999.3
20260505081218 73 213 9.6 15.6 0.00 0.02 0.00 71 999.3
20260505080218 73 224 8.7 11.3 0.00 0.02 0.00 70 999.3
20260505075219 73 212 13.0 17.4 0.00 0.02 0.00 71 999.3
20260505074219 73 209 8.7 12.2 0.00 0.02 0.00 71 999.4
20260505073219 73 209 8.7 11.3 0.00 0.02 0.00 71 999.5
20260505072219 73 219 7.0 13.9 0.00 0.02 0.00 70 999.7
20260505071219 73 206 8.7 12.2 0.00 0.02 0.00 70 999.7
20260505070219 73 210 10.4 14.8 0.00 0.02 0.00 70 1000.0
20260505065219 73 211 6.1 9.6 0.00 0.02 0.00 70 1000.1
20260505064219 73 196 10.4 16.5 0.00 0.02 0.00 70 1000.1
20260505063217 74 204 9.6 12.2 0.00 0.02 0.00 70 1000.2
20260505062217 74 210 10.4 13.0 0.00 0.02 0.00 70 1000.2
20260505061240 74 204 7.8 11.3 0.00 0.02 0.00 69 1000.4
20260505060300 74 203 7.0 8.7 0.00 0.02 0.00 69 1000.5
20260505055218 74 199 7.8 11.3 0.00 0.02 0.00 69 1000.5
20260505054217 74 199 8.7 16.5 0.00 0.02 0.00 69 1000.6
20260505053217 74 190 8.7 13.9 0.00 0.02 0.00 69 1000.7
20260505052218 74 205 11.3 16.5 0.00 0.02 0.00 68 1000.7
20260505051221 74 200 9.6 13.0 0.00 0.02 0.00 68 1000.8
20260505050218 74 189 12.2 16.5 0.00 0.02 0.00 68 1000.9
20260505041239 75 192 8.7 13.9 0.00 0.02 0.02 67 1001.4
20260505040219 75 193 7.8 12.2 0.00 0.02 0.02 67 1001.4
20260505035239 75 199 8.7 13.0 0.00 0.02 0.02 66 1001.4
20260505034219 75 193 12.2 18.2 0.00 0.02 0.02 66 1001.4
20260505033256 76 188 10.4 18.2 0.00 0.02 0.02 65 1001.4
20260505032219 76 195 11.3 15.6 0.00 0.02 0.02 65 1001.2
20260505031239 76 180 11.3 15.6 0.00 0.02 0.02 64 1001.1
20260505030239 76 180 11.3 19.1 0.00 0.02 0.02 64 1001.2
20260505025240 76 186 12.2 16.5 0.00 0.02 0.02 63 1000.9
20260505024216 77 181 11.3 17.4 0.00 0.02 0.02 63 1000.7
20260505023217 77 190 9.6 12.2 0.00 0.02 0.02 62 1001.0
20260505022220 77 184 10.4 18.2 0.00 0.02 0.02 62 1000.8
20260505021220 77 178 13.0 20.0 0.00 0.02 0.02 62 1000.6
20260505020220 78 177 7.8 11.3 0.00 0.02 0.02 61 1000.7
20260505015217 78 179 9.6 13.0 0.00 0.02 0.02 60 1000.7
20260505014217 78 191 10.4 13.9 0.00 0.02 0.02 59 1000.8
20260505013238 79 186 9.6 18.2 0.00 0.02 0.02 58 1000.9
20260505012221 79 187 7.8 12.2 0.00 0.02 0.02 58 1000.7
20260505011218 79 182 11.3 18.2 0.00 0.02 0.02 58 1000.8
20260505010218 79 188 8.7 13.0 0.00 0.02 0.02 57 1000.9
20260505005218 79 189 13.0 21.7 0.00 0.02 0.02 57 1001.0
20260505004218 80 176 9.6 17.4 0.00 0.02 0.02 56 1000.8
20260505003238 80 193 10.4 15.6 0.00 0.02 0.02 56 1001.1
20260505002218 80 184 8.7 14.8 0.00 0.02 0.02 55 1001.2
20260505001219 80 184 10.4 17.4 0.00 0.01 0.01 55 1001.3
20260505000219 80 185 8.7 13.9 0.00 0.01 0.01 54 1001.4
20260504235219 80 188 11.3 15.6 0.00 0.01 0.01 54 1001.5
20260504234219 81 187 9.6 13.0 0.00 0.01 0.01 54 1001.6
20260504233219 81 195 7.0 10.4 0.00 0.01 0.01 54 1001.7
20260504232219 81 182 9.6 13.0 0.00 0.01 0.01 54 1001.7
20260504231219 81 187 7.0 10.4 0.00 0.01 0.01 54 1001.9
20260504230220 81 195 7.8 13.9 0.00 0.01 0.01 53 1001.9
20260504225257 80 200 10.4 13.9 0.00 0.01 0.01 53 1002.1
20260504224217 80 199 7.0 13.0 0.00 0.01 0.01 53 1002.1
20260504223220 80 187 7.8 11.3 0.00 0.01 0.01 53 1002.3
20260504222220 81 175 10.4 14.8 0.01 0.01 0.01 52 1002.3
20260504221220 80 184 10.4 14.8 0.01 0.01 0.01 53 1002.4
20260504220217 80 183 8.7 12.2 0.01 0.01 0.01 52 1002.6
20260504215217 80 206 7.0 10.4 0.01 0.01 0.01 52 1002.7